Regional Weather Roundup
Issued by NWS

Home | Current Version | Previous Version | Text Only | Print | Product List | Glossary On
Versions: 1 2 3 4 5 6 7 8 9 10 11 12 13 14 15 16 17 18 19 20 21 22 23 24 25 26 27 28
000
ASUS45 KSLC 231010
RWRUT

UTAH REGIONAL WEATHER ROUNDUP
NATIONAL WEATHER SERVICE SALT LAKE CITY UT
400 AM MDT SUN APR 23 2017

UTZ001>011-023>025-231100-

NORTHERN UTAH

CITY           SKY/WX    TMP DP  RH WIND       PRES   REMARKS
BRIGHAM CITY     N/A     43  38  84 CALM      29.92F
HILL AFB       NOT AVBL
LOGAN            N/A     41  36  82 CALM      29.93S
OGDEN            N/A     48  33  56 CALM      29.91F
SALT LAKE CITY MOCLDY    52  34  50 E9        29.90F
TOOELE VALLEY    N/A     50  34  53 CALM      29.91S
WENDOVER         N/A     47  35  63 CALM      29.89F
HEBER CITY       N/A     36  28  75 CALM      29.98S
WEST JORDAN      N/A     51  40  66 S9        29.92S

$$

UTZ011>015-024>027-231100-

CENTRAL/NORTHEAST UTAH

CITY           SKY/WX    TMP DP  RH WIND       PRES   REMARKS
PROVO AIRPORT    N/A     43  34  70 NE5       29.93
MOAB/CANYONLAN   N/A     44  16  32 CALM      30.00F
DELTA            N/A     45  32  61 NW5       29.93R
PRICE            N/A     40  19  43 N9        30.04F WCI  34
ROOSEVELT      CLOUDY    34  27  75 W5        30.07F WCI  30
VERNAL         CLOUDY    36  24  62 NW3       30.05F

$$

UTZ013>016-019>022-027-231100-

SOUTHERN UTAH

CITY           SKY/WX    TMP DP  RH WIND       PRES   REMARKS
BRYCE CANYON     N/A     33  22  63 W3        30.11F
CEDAR CITY       N/A     49  28  44 SW12      29.95F
MILFORD          N/A     45  33  63 S6        29.93S
ST GEORGE        N/A     63  24  22 W3        29.89S
HANKSVILLE       N/A     45  14  29 CALM      30.03F
BLANDING         N/A     42  17  36 NE8       30.16F

$$

REGIONAL REPORTS     COLORADO/ARIZONA

CITY           SKY/WX    TMP DP  RH WIND       PRES   REMARKS
CRAIG, CO      CLOUDY    29  24  82 CALM      30.10F
GRAND JUNCTION CLOUDY    44  24  45 SE9       30.06F
RIFLE, CO      CLOUDY    36  27  69 CALM      30.12S
MONTROSE, CO   CLOUDY    37  23  56 SE6       30.13F WCI  32
CORTEZ, CO     CLOUDY    29  22  75 CALM      30.13F
COLORADO CITY    N/A     43  28  56 CALM      30.00F
PAGE, AZ         N/A     52  22  30 CALM      29.99F
GRAND CANYON     N/A     32  22  66 CALM      30.08F
KINGMAN, AZ      N/A     50  25  37 SW5       29.89F
FLAGSTAFF, AZ    N/A     32  21  64 CALM      30.11F

$$

REGIONAL REPORTS    NEVADA/IDAHO/WYOMING

CITY           SKY/WX    TMP DP  RH WIND       PRES   REMARKS
LAS VEGAS, NV  MOCLDY    68  23  18 SW5       29.78F
ELY, NY          N/A     48  25  40 S14       29.94F
ELKO, NV         N/A     45  34  65 CALM      29.91S
POCATELLO, ID  CLOUDY    49  31  49 SW12      29.91R
BURLEY, ID     CLOUDY    50  38  63 VRB3      29.89S
EVANSTON, WY   CLOUDY    42  21  43 S5        29.98F
ROCK SPRINGS,  CLOUDY    38  22  52 SE10      30.01F WCI  31
KEMMERER, WY     N/A     32  27  80 N8        30.00F WCI  25

$$




USA.gov is the U.S. government's official web portal to all federal, state and local government web resources and services.